Home   Weather   Patras   Past weeks
Flag for Greece

Past Weather in Patras, Greece — Yesterday and Last 2 Weeks

Now
95 °F

Passing clouds.


Feels Like: 93 °F
Forecast: 93 / 74 °F
Wind: 9 mph from North

Location: Araxos Airport

Current Time: Jul 22, 2019 at 3:08:18 pm

Latest Report: Jul 22, 2019 at 2:20 pm


Visibility: N/A

Pressure: 29.98 "Hg

Humidity: 25%

Dew Point: 54 °F

Location of PatrasLocation

Past Weather in Patras — Graph

°F

Patras Temperature Yesterday

Maximum temperature yesterday: 93 °F (at 2:20 pm)
Minimum temperature yesterday: 70 °F (at 1:50 am)
Average temperature yesterday: 83 °F

High & Low Weather Summary for the Past Weeks

 TemperatureHumidityPressure
High99 °F (Jul 10, 2:20 pm)100% (Jul 8, 6:20 am)30.04 "Hg (Jul 8, 6:20 am)
Low63 °F (Jul 15, 4:50 am)24% (Jul 20, 1:50 pm)29.59 "Hg (Jul 16, 6:50 pm)
Average80 °F62%29.83 "Hg
* Reported Jul 7 1:20 pm — Jul 22 1:50 pm, Patras. Weather by CustomWeather, © 2019

Note: Actual official high and low records may vary slightly from our data, if they occured in-between our weather recording intervals... More about our weather records

Advertising

Patras Weather History for the Previous 24 Hours

Scroll right to see more
 ConditionsComfort  
Time TempWeatherWind HumidityBarometerVisibility
1:50 pm
Mon, Jul 22
93 °FPassing clouds.8 mph28%29.98 "HgN/A
1:20 pm93 °FPassing clouds.10 mph30%30.01 "HgN/A
12:50 pm93 °FPassing clouds.10 mph28%30.01 "HgN/A
12:20 pm91 °FPassing clouds.10 mph30%30.01 "HgN/A
11:50 am91 °FPassing clouds.10 mph30%30.01 "HgN/A
11:20 am90 °FSunny.8 mph33%30.01 "Hg10 mi
10:50 am88 °FSunny.6 mph35%30.01 "Hg10 mi
10:20 am86 °FSunny.7 mph38%30.01 "Hg10 mi
9:50 am84 °FSunny.8 mph40%30.01 "Hg10 mi
9:20 am82 °FSunny.8 mph42%30.01 "Hg10 mi
8:50 am82 °FSunny.8 mph42%30.01 "Hg10 mi
8:20 am81 °FSunny.8 mph51%30.01 "Hg10 mi
7:50 am77 °FSunny.6 mph61%30.01 "Hg10 mi
7:20 am77 °FSunny.5 mph57%30.01 "Hg10 mi
6:50 am75 °FSunny.7 mph65%30.01 "Hg10 mi
6:20 am73 °FClear.6 mph69%30.01 "Hg10 mi
5:50 am75 °FClear.6 mph61%30.01 "Hg10 mi
4:50 am73 °FClear.No wind69%30.01 "Hg10 mi
3:50 am72 °FClear.5 mph78%30.01 "Hg10 mi
2:50 am72 °FClear.No wind73%30.04 "Hg10 mi
1:50 am75 °FClear.5 mph65%30.04 "Hg10 mi
12:50 am75 °FClear.No wind65%30.04 "Hg10 mi
11:50 pm
Sun, Jul 21
75 °FClear.No wind69%30.01 "Hg10 mi
10:50 pm77 °FClear.No wind65%30.01 "Hg10 mi
9:50 pm79 °FClear.No wind58%30.01 "Hg10 mi
8:50 pm84 °FSunny.No wind45%29.98 "Hg10 mi
8:20 pm86 °FSunny.5 mph43%29.98 "Hg10 mi
7:50 pm88 °FSunny.5 mph33%29.98 "Hg10 mi
7:20 pm90 °FSunny.8 mph33%29.98 "Hg10 mi
6:50 pm90 °FSunny.7 mph33%29.98 "Hg10 mi
6:20 pm91 °FSunny.12 mph28%29.98 "Hg10 mi
5:50 pm93 °FSunny.10 mph26%29.98 "Hg10 mi
5:20 pm91 °FPassing clouds.10 mph32%29.98 "HgN/A
3:50 pm91 °FPassing clouds.10 mph32%30.01 "HgN/A
3:20 pm91 °FPassing clouds.9 mph30%30.01 "HgN/A
Weather by CustomWeather, © 2019

See weather overview